[[{"header":{"parameterUnit":"m.s-1","parameterCategory":1,"la1":30.2991,"la2":30.254,"lo1":-89.0895,"lo2":-89.0444,"dy":0.0017,"dx":0.0017,"nx":28,"ny":28,"refTime":"2025-06-19T21:00:00:Z","depth":0,"parameterNumber":2,"parameterNumberName":"U-component_of_WINDS"},"data":[0,0,0,0,0,0,0,0,0,0,0,0,0,0,0,0,0,0,0,0,0,0,0,0,0,0,0,0,0,0,0,0,0,0,0,0,0,0,0,0,0,0,0,0,0,0,0,0,0,0,0,0,0,0,0,0,0,0,4.8018,4.8017,0,4.794,4.7939,4.7938,4.7727,4.7722,4.7718,4.7713,4.764,4.7642,4.7644,0,0,0,0,0,0,0,0,0,0,0,0,0,4.7991,4.7992,4.8018,4.8017,4.8016,4.794,4.7939,4.7938,4.7728,4.7722,4.7717,4.7711,4.7639,4.7642,4.7645,0,0,0,0,0,0,0,0,0,0,0,0,0,4.7967,4.7993,4.8019,4.7902,4.7891,4.794,4.7939,4.7938,4.7729,4.7722,4.7715,4.7709,4.7638,4.7642,4.7645,4.7803,0,0,4.7655,4.7657,0,0,0,0,0,0,0,0,4.7968,4.7968,4.792,4.791,4.7898,4.7836,4.7902,4.7893,4.7731,4.7791,4.7713,4.7705,4.7711,4.7708,4.7709,4.7799,4.7796,4.7656,4.7658,4.7659,4.766,0,0,0,0,0,0,0,4.797,4.797,4.7987,4.792,4.7906,4.7855,4.7844,4.7899,4.779,4.7785,4.7769,4.7763,4.7704,4.7706,4.7705,4.7795,4.7656,4.7659,4.7661,4.7662,4.8008,4.8015,0,0,0,0,0,0,4.7988,4.7973,4.799,4.7985,4.7917,4.7861,4.7849,4.7863,4.7789,4.7771,4.7769,4.7753,4.7703,4.7702,4.7702,4.7878,4.7659,4.7662,4.7664,4.8001,4.801,4.8018,0,0,0,0,0,0,4.7988,4.7991,4.7993,4.7975,4.7971,4.7869,4.7886,4.7865,4.7866,4.7777,4.7757,4.779,4.7698,4.7697,4.7778,4.7873,4.7664,4.7667,4.7993,4.8004,4.8014,4.8236,0,0,0,0,0,0,4.7988,4.7993,4.8051,4.7978,4.7973,4.807,4.7892,4.7868,4.7872,4.7851,4.7792,4.7775,4.7692,4.7774,4.7782,4.7874,4.767,4.7984,4.7998,4.801,4.8219,4.8253,4.8281,0,0,0,0,0,4.7988,4.8119,4.8055,4.8058,4.8043,4.8076,4.8073,4.7973,4.7881,4.7938,4.788,4.7777,4.7863,4.7784,4.7791,4.7886,4.7977,4.7994,4.8009,4.8206,4.8246,4.8281,0,0,0,0,0,0,4.8208,4.8107,4.8035,4.8145,4.812,4.804,4.8109,4.802,4.8022,4.8003,4.788,4.7869,4.7966,4.7935,4.7849,4.8033,4.7903,4.7921,4.805,4.8088,4.8118,4.8122,4.7673,0,0,0,0,0,4.827,4.8303,4.8213,4.832,4.831,4.8213,4.8224,4.8148,4.8118,4.8107,4.8055,4.8032,4.8052,4.8069,4.8083,4.8215,4.8198,4.8284,4.8315,4.834,4.8357,4.8421,4.8457,4.807,4.807,4.807,0,0,4.8397,4.8345,4.8374,4.8362,4.8334,4.8372,4.8205,4.8253,4.828,4.8115,4.8186,4.8148,4.8114,4.822,4.8264,4.8196,4.846,4.8361,4.8382,4.8384,4.8441,4.8478,4.8511,4.8081,4.8079,4.8077,0,0,4.8646,4.8613,4.8695,4.8669,4.8627,4.8561,4.8582,4.8514,4.8481,4.8551,4.8427,4.8459,4.8498,4.8477,4.8472,4.8714,4.8618,4.8723,4.8883,4.8947,4.8977,4.9004,4.9087,4.9119,4.874,4.874,4.8741,0,4.881,4.886,4.875,4.8804,4.8802,4.8652,4.8734,4.8716,4.8683,4.8685,4.861,4.8654,4.8621,4.8718,4.8777,4.8779,4.8797,4.8727,4.8982,4.9007,4.903,4.9108,4.914,4.8753,4.8751,4.875,4.8749,0,4.9062,4.9099,4.9171,4.9138,4.9145,4.9214,4.9115,4.9135,4.906,4.9002,4.9075,4.9029,4.903,4.9049,4.8978,4.9136,4.9095,4.9003,4.8869,4.9081,4.9152,4.9181,4.8771,4.8766,4.8763,4.876,0,0,4.9447,4.9351,4.9379,4.9361,4.9304,4.9331,4.9394,4.9392,4.941,4.9394,4.9441,4.9478,4.9391,4.9386,4.9311,4.9368,4.9558,4.9268,4.9265,4.932,4.9727,4.9794,4.983,4.9495,4.9501,4.9505,4.9728,0,4.968,4.9777,4.9679,4.9797,4.9828,4.9687,4.9741,4.9712,4.9661,4.9681,4.9625,4.9651,4.9536,4.9531,4.9582,4.9524,4.9637,4.9507,4.9538,4.9541,4.9548,4.9868,4.9939,5.0152,4.9756,4.9761,4.9764,0,4.9963,4.9955,5.0075,5.0007,5.0017,5.0067,5.0056,5.0078,5.0043,5.0001,4.9995,4.9903,4.996,4.9832,4.9908,4.9822,4.9829,4.9803,4.9809,4.9805,4.9663,4.987,5.0218,5.0249,4.9807,4.9804,4.9801,0,5.0227,5.0247,5.032,5.031,5.0234,5.0272,5.0243,5.0201,5.0205,5.0198,5.0199,5.02,5.02,5.0203,5.0114,5.0029,5.0201,5.0066,5.0167,5.017,5.0207,5.0205,5.0558,5.0219,5.0219,5.0218,5.0217,0,5.0495,5.0574,5.0437,5.0482,5.0566,5.0454,5.054,5.0496,5.046,5.0494,5.0375,5.041,5.0292,5.0315,5.0247,5.0319,5.0321,5.0289,5.0269,5.0297,5.0301,5.0298,5.028,5.0226,5.0224,5.0223,5.0221,0,5.0803,5.0715,5.0785,5.0706,5.0689,5.0754,5.0687,5.0725,5.0666,5.0711,5.0715,5.0623,5.0644,5.0556,5.0564,5.0517,5.0624,5.0581,5.0635,5.062,5.0725,5.0715,5.1086,5.1127,5.0766,5.0769,5.0772,0,5.0978,5.1034,5.096,5.0973,5.0949,5.0973,5.0975,5.0868,5.0877,5.084,5.0884,5.0894,5.0896,5.0937,5.0871,5.0876,5.083,5.096,5.083,5.0856,5.0828,5.0824,5.0828,5.0986,5.0991,5.0994,5.0997,0,5.1296,5.1249,5.1256,5.1249,5.1256,5.1246,5.1228,5.1246,5.113,5.1146,5.1164,5.1166,5.1171,5.1183,5.1174,5.1145,5.1052,5.1039,5.1062,5.109,5.1117,5.11,5.0704,5.103,5.1027,5.1025,5.1023,5.1021,5.1539,5.1581,5.1535,5.1547,5.1522,5.1508,5.1539,5.1482,5.1495,5.1488,5.1425,5.1456,5.1418,5.1396,5.1376,5.1399,5.1338,5.1373,5.138,5.139,5.1406,5.1116,5.1397,5.1396,5.1395,5.1395,5.1394,0,5.1848,5.1811,5.1823,5.1799,5.181,5.172,5.1695,5.1709,5.1736,5.1709,5.1712,5.1733,5.1744,5.1679,5.1681,5.1712,5.1669,5.1715,5.171,5.1705,5.1462,5.144,5.175,5.175,5.1749,5.1749,5.1749,5.1749,5.2009,5.2074,5.2022,5.2074,5.2036,5.2063,5.2056,5.2042,5.2018,5.2046,5.2053,5.2009,5.1966,5.1964,5.197,5.1951,5.1956,5.2016,5.1983,5.1757,5.1722,5.1689,5.1667,5.2019,5.202,5.2222,5.2224,5.2225]},{"header":{"parameterUnit":"m.s-1","parameterCategory":1,"la1":30.2991,"la2":30.254,"lo1":-89.0895,"lo2":-89.0444,"dy":0.0017,"dx":0.0017,"nx":28,"ny":28,"refTime":"2025-06-19T21:00:00:Z","depth":0,"parameterNumber":3,"parameterNumberName":"V-component_of_WINDS"},"data":[0,0,0,0,0,0,0,0,0,0,0,0,0,0,0,0,0,0,0,0,0,0,0,0,0,0,0,0,0,0,0,0,0,0,0,0,0,0,0,0,0,0,0,0,0,0,0,0,0,0,0,0,0,0,0,0,0,0,3.134,3.1341,0,3.1406,3.1406,3.1407,3.141,3.1409,3.1408,3.1408,3.1471,3.1473,3.1476,0,0,0,0,0,0,0,0,0,0,0,0,0,3.1212,3.1214,3.134,3.1341,3.1342,3.1406,3.1406,3.1407,3.141,3.1409,3.1408,3.1407,3.147,3.1473,3.1476,0,0,0,0,0,0,0,0,0,0,0,0,0,3.1271,3.1215,3.134,3.1351,3.1353,3.1405,3.1406,3.1408,3.141,3.1409,3.1408,3.1407,3.1469,3.1473,3.1476,3.1521,0,0,3.1487,3.1489,0,0,0,0,0,0,0,0,3.1268,3.1276,3.1349,3.135,3.1352,3.1399,3.1384,3.1446,3.1411,3.1388,3.1408,3.1406,3.1448,3.1453,3.1468,3.1524,3.1527,3.1488,3.149,3.1491,3.1492,0,0,0,0,0,0,0,3.1264,3.1273,3.1366,3.135,3.1352,3.1351,3.1358,3.1396,3.1423,3.139,3.1391,3.1398,3.1448,3.1464,3.1469,3.1528,3.1488,3.1491,3.1493,3.1494,3.1621,3.1623,0,0,0,0,0,0,3.1258,3.127,3.1364,3.1368,3.1307,3.1354,3.1362,3.1385,3.1423,3.1428,3.1399,3.1398,3.1459,3.1465,3.1471,3.1524,3.1491,3.1495,3.1497,3.162,3.1622,3.1623,0,0,0,0,0,0,3.1256,3.1267,3.1361,3.1319,3.1331,3.1357,3.1383,3.1387,3.1403,3.143,3.1434,3.1411,3.1458,3.1466,3.1508,3.1527,3.1496,3.15,3.1619,3.1621,3.1622,3.1632,0,0,0,0,0,0,3.1252,3.1266,3.1285,3.132,3.1333,3.1399,3.1384,3.1389,3.1409,3.1408,3.1442,3.1446,3.1458,3.1503,3.1512,3.1531,3.1502,3.1617,3.162,3.1622,3.163,3.1634,3.1637,0,0,0,0,0,3.1247,3.1285,3.1286,3.1297,3.1358,3.14,3.1408,3.1421,3.1411,3.1429,3.1446,3.1445,3.1523,3.1507,3.1517,3.1538,3.1616,3.1619,3.1622,3.1629,3.1633,3.1637,0,0,0,0,0,0,3.1251,3.129,3.1291,3.1342,3.1368,3.1401,3.1424,3.1426,3.1455,3.1453,3.1467,3.1474,3.1516,3.1531,3.1513,3.1582,3.1568,3.1573,3.157,3.1575,3.1578,3.1573,3.1505,0,0,0,0,0,3.1258,3.1291,3.1322,3.1363,3.1377,3.1398,3.1417,3.1425,3.1452,3.1463,3.1483,3.1508,3.1538,3.1557,3.1587,3.1633,3.1638,3.1651,3.1655,3.1658,3.1661,3.1684,3.1689,3.1632,3.1632,3.1632,0,0,3.1272,3.1297,3.1317,3.1365,3.1386,3.1417,3.1407,3.1442,3.1464,3.1468,3.1508,3.1524,3.1552,3.1596,3.1616,3.161,3.1678,3.1661,3.1663,3.1665,3.1687,3.1692,3.1697,3.1634,3.1633,3.1633,0,0,3.1314,3.1338,3.1373,3.1394,3.1426,3.144,3.1448,3.1481,3.1491,3.1532,3.1534,3.1561,3.1613,3.1632,3.1649,3.1695,3.1694,3.1704,3.1722,3.1743,3.1748,3.1752,3.1766,3.1771,3.1707,3.1707,3.1707,0,3.1328,3.1377,3.1391,3.1425,3.1444,3.1449,3.1483,3.1502,3.1542,3.1554,3.1547,3.161,3.163,3.1677,3.1688,3.1702,3.171,3.17,3.1746,3.175,3.1754,3.1768,3.1773,3.1708,3.1708,3.1708,3.1708,0,3.139,3.1424,3.1448,3.1487,3.1509,3.1543,3.156,3.158,3.1585,3.1599,3.1639,3.1662,3.1695,3.1707,3.1713,3.1754,3.1748,3.1744,3.173,3.176,3.1773,3.1779,3.1709,3.1709,3.1709,3.1709,0,0,3.1438,3.1482,3.149,3.1506,3.1541,3.1566,3.1599,3.1631,3.1647,3.1674,3.17,3.1742,3.1737,3.1756,3.1763,3.1782,3.1814,3.1775,3.1776,3.178,3.1857,3.186,3.1866,3.1814,3.1815,3.1816,3.1854,0,3.1482,3.1542,3.1554,3.1605,3.1634,3.1637,3.1665,3.1688,3.1701,3.1726,3.174,3.1769,3.1761,3.1772,3.1791,3.1806,3.1829,3.1804,3.1836,3.1837,3.1828,3.1873,3.1876,3.1912,3.186,3.1861,3.1861,0,3.1542,3.157,3.1623,3.1651,3.1664,3.1689,3.1718,3.1743,3.1768,3.1775,3.1795,3.1799,3.1831,3.1816,3.1858,3.184,3.1854,3.1863,3.1864,3.1867,3.185,3.1875,3.1923,3.1928,3.187,3.1869,3.1868,0,3.1569,3.1619,3.1657,3.1671,3.1705,3.1722,3.1736,3.176,3.1778,3.1802,3.1814,3.1842,3.1857,3.1877,3.1888,3.1877,3.1928,3.1915,3.1933,3.1933,3.1944,3.1943,3.1993,3.1955,3.1955,3.1955,3.1955,0,3.1616,3.1648,3.1669,3.1692,3.1727,3.174,3.1773,3.1788,3.1808,3.1832,3.1836,3.1859,3.1872,3.1896,3.1904,3.1936,3.1944,3.1949,3.1951,3.1948,3.1947,3.1956,3.1954,3.1956,3.1956,3.1956,3.1955,0,3.1652,3.1668,3.1709,3.1736,3.1744,3.1768,3.1791,3.1812,3.1824,3.1855,3.1863,3.1881,3.1909,3.1922,3.1956,3.1961,3.1997,3.1998,3.1989,3.1989,3.2006,3.2004,3.2064,3.2071,3.2029,3.2029,3.203,0,3.1681,3.1705,3.1735,3.1752,3.1767,3.1794,3.1812,3.1824,3.1842,3.187,3.1887,3.1915,3.1938,3.1982,3.1997,3.2022,3.2023,3.2042,3.2027,3.2022,3.2021,3.2019,3.202,3.2044,3.2045,3.2045,3.2045,0,3.1729,3.1735,3.1761,3.1789,3.181,3.1832,3.1854,3.1867,3.1882,3.1902,3.193,3.1948,3.1982,3.2009,3.2035,3.2048,3.2048,3.205,3.2055,3.2052,3.2045,3.2047,3.1995,3.2049,3.2048,3.2048,3.2048,3.2048,3.1761,3.1782,3.1806,3.1834,3.1851,3.1871,3.1891,3.1905,3.193,3.1959,3.1964,3.1993,3.2014,3.2049,3.2063,3.2085,3.208,3.2088,3.209,3.2091,3.2091,3.2043,3.209,3.2089,3.2089,3.2089,3.2089,0,3.1808,3.1823,3.1849,3.1879,3.19,3.1899,3.1922,3.1939,3.1966,3.1985,3.2007,3.2038,3.2063,3.208,3.2105,3.2119,3.212,3.2125,3.2123,3.2126,3.2095,3.2087,3.2124,3.2124,3.2124,3.2124,3.2124,3.2124,3.1835,3.187,3.1877,3.1919,3.1934,3.1963,3.1976,3.1993,3.2009,3.2043,3.2064,3.2075,3.2093,3.2118,3.214,3.2144,3.2153,3.2158,3.2161,3.2132,3.2128,3.2125,3.2117,3.216,3.216,3.219,3.219,3.2191]}]]